Temperature
18 18 18 18 18 18 18 18 17 17 17 18 17 17 17 17 17 17 17 17 17 17 17 16 16 16 16 16 16 16 16 15 15 15 15 15 15 15
17 17 17 17 17 17 17 17 17 17 17 17 17 17 17 17 17 17 17 17 17 16 16 16 16 16 16 16 16 16 15 15 15 15 15 15 15 15
17 17 17 17 17 17 17 17 17 17 17 17 17 17 17 17 17 17 16 16 16 16 16 16 16 16 16 16 16 15 15 15 15 15 15 15 15 15
17 17 17 17 17 17 17 17 17 17 16 16 16 16 16 16 16 16 16 16 16 16 16 16 16 16 16 15 15 15 15 15 15 15 15 15 15 14
17 17 17 16 16 16 16 16 16 16 16 16 16 16 16 16 16 16 16 16 16 15 15 15 15 15 15 15 15 15 15 15 15 15 14 15 14 14
17 16 16 16 16 16 16 16 16 16 16 16 16 16 15 16 16 15 15 15 15 15 15 15 15 15 15 15 15 15 15 15 15 14 14 14 14 14
16 16 16 16 16 16 16 16 15 15 15 15 15 15 15 15 15 15 15 15 15 15 15 15 15 15 15 15 15 15 14 14 14 14 14 14 14 14
16 16 16 16 16 16 16 15 15 15 15 15 15 15 14 15 15 15 14 14 14 14 14 14 14 14 14 15 14 14 14 14 14 14 14 14 13 13
16 16 15 15 15 15 15 15 15 15 15 15 14 14 14 14 14 14 14 14 14 14 14 14 14 14 14 14 14 14 14 14 14 14 13 13 13 13
15 15 15 15 15 15 15 15 15 15 14 14 14 14 14 14 14 14 14 14 14 14 14 14 14 13 13 14 14 14 14 14 13 13 13 13 13 13
15 15 15 15 15 15 14 14 14 14 14 14 14 13 13 13 13 13 13 13 13 13 13 13 13 13 13 13 13 13 13 13 13 13 13 13 13 12
14 14 14 14 14 14 14 14 14 14 14 13 13 13 13 13 13 13 13 13 13 13 13 13 13 13 13 13 13 13 13 13 13 13 13 12 12 12
14 14 14 14 14 14 14 14 14 13 13 13 13 13 13 13 13 13 13 13 12 12 12 12 12 12 12 12 12 12 13 12 12 12 12 12 12 12
14 14 14 14 14 13 13 13 13 13 13 12 12 12 12 12 12 12 12 12 12 12 12 12 12 12 12 12 12 12 12 12 12 12 12 12 12 11
13 13 13 13 13 13 13 13 12 12 12 12 12 12 12 12 12 12 12 12 12 12 12 12 12 12 11 11 11 11 11 12 12 11 11 11 11 11
13 13 13 13 13 12 12 12 12 12 12 11 11 11 11 11 12 11 11 12 12 12 12 12 11 11 11 11 11 11 11 11 11 11 11 11 11 11
13 13 12 12 12 11 12 11 11 11 11 11 11 11 11 11 11 11 11 11 11 11 11 11 11 11 11 11 11 11 11 11 11 11 10 10 11 11
12 12 12 11 11 11 11 11 11 11 11 11 11 11 11 11 11 11 11 10 10 11 11 11 11 11 11 11 11 11 10 10 10 10 10 10 10 10
12 11 11 11 11 11 11 11 11 11 11 11 10 10 10 10 10 10 10 10 10 10 10 10 10 10 10 10 10 10 10 10 10 10 10 10 10 10
11 11 11 11 11 10 10 10 10 10 10 10 10 10 10 10 10 10 10 10 10 10 10 10 10 10 10 10 10 10 10 10 10 10 10 10 10 10
11 11 10 10 10 10 10 10 10 10 10 10 10 10 10 9 9 9 9 9 9 9 9 9 9 9 9 9 9 10 10 10 10 10 10 9 9 9
10 10 10 10 10 10 10 9 9 9 9 9 9 9 9 9 9 9 9 9 9 9 9 9 9 9 9 9 9 9 9 10 10 9 9 9 9 9
10 10 10 10 9 9 9 9 9 9 9 9 9 9 8 8 8 9 9 9 9 9 8 8 9 9 9 9 9 9 9 9 9 9 9 9 9 9
Wind_Speed
3 3 3 3 3 2 2 2 2 3 3 3 2 2 2 4 6 7 6 10 10 10 10 10 10 9 9 9 8 8 8 9 9 9 10 10 10 10
2 2 2 3 3 2 2 2 2 3 3 2 2 2 1 2 5 6 6 9 11 10 10 10 9 9 8 8 7 8 8 8 9 9 9 9 9 10
3 2 2 3 3 3 2 2 2 2 3 3 2 2 1 1 2 4 6 7 7 11 11 11 10 10 9 9 8 8 9 9 9 9 9 9 9 10
3 2 3 3 3 3 3 3 3 2 3 4 3 2 3 2 2 3 3 4 5 9 12 12 11 10 10 9 9 8 8 8 9 9 9 9 9 10
3 3 3 3 3 3 3 4 3 4 3 4 4 3 2 2 2 3 3 2 4 6 10 11 11 10 9 9 9 8 8 8 8 8 8 9 9 9
3 3 3 3 3 4 4 4 4 4 4 3 3 3 2 3 2 2 2 2 3 3 3 6 8 9 9 9 9 8 8 8 8 8 8 8 8 9
3 2 3 2 1 2 3 3 3 3 4 3 3 2 2 2 2 2 2 2 3 2 1 3 4 5 6 8 9 8 8 8 9 9 8 8 8 8
3 3 3 3 2 3 3 3 3 4 3 3 2 2 2 2 3 3 3 3 3 2 2 3 3 4 4 6 8 9 10 9 9 9 8 8 7 7
4 3 4 3 1 1 2 2 3 4 4 3 3 3 3 3 3 3 3 3 4 3 3 4 3 3 3 5 9 11 11 11 10 9 9 9 8 8
3 3 3 2 2 1 2 1 2 2 2 2 1 2 3 3 3 5 5 5 4 4 2 3 3 3 2 4 7 9 10 11 11 10 9 9 8 7
2 1 2 2 0 0 1 1 1 1 1 0 1 1 2 3 4 3 3 3 4 3 1 2 3 2 2 3 5 8 9 11 12 11 10 9 8 7
2 2 1 2 2 1 1 1 1 1 1 1 1 2 2 3 3 2 3 3 3 2 1 1 2 2 2 2 1 3 6 8 10 11 10 9 8 5
2 2 1 3 3 2 1 1 1 2 2 2 2 2 2 2 2 2 2 2 3 3 2 1 2 2 2 2 1 2 3 3 5 7 9 10 10 8
1 0 1 3 2 2 1 1 1 3 2 1 2 2 2 2 2 2 2 3 4 4 3 2 2 2 2 3 2 2 2 3 3 4 5 7 9 10
0 2 3 2 1 1 2 2 2 2 1 2 2 2 1 2 2 2 2 3 4 6 5 4 3 3 3 3 3 3 2 2 3 3 3 4 5 5
1 2 2 1 1 0 0 1 2 1 1 2 2 2 2 1 1 1 2 2 3 3 4 4 3 3 3 4 3 3 3 2 2 2 3 3 4 5
1 1 1 1 1 1 1 0 1 0 1 1 1 2 2 2 2 2 2 2 3 3 2 2 3 4 4 3 3 3 3 2 2 3 2 3 3 4
2 1 1 1 1 1 1 1 1 1 1 1 2 2 2 2 2 2 2 2 3 2 2 2 2 2 3 3 3 3 3 3 3 2 3 3 3 3
2 2 2 1 1 1 1 1 1 1 1 1 2 2 2 2 2 2 2 3 3 3 3 2 1 2 3 4 4 4 3 3 3 3 3 3 4 3
2 2 2 1 1 1 1 1 1 1 1 1 2 2 2 2 2 3 2 2 3 3 3 3 2 2 3 4 4 4 5 3 2 3 3 2 2 2
2 2 1 1 0 0 0 0 1 1 1 2 2 2 2 3 3 3 3 3 3 3 4 3 3 5 4 2 3 3 3 4 4 3 3 2 3 3
1 1 0 0 1 1 1 1 1 1 1 2 3 3 3 3 4 4 4 3 3 3 4 3 3 3 3 3 4 4 3 3 3 4 4 5 3 3
1 1 0 0 0 0 0 1 1 2 2 2 3 3 3 4 4 4 4 3 3 4 4 4 3 3 3 3 3 4 5 4 2 2 3 4 5 7
Wind_Direction
239 246 258 268 269 265 251 243 251 261 266 256 257 227 176 160 166 185 183 189 196 200 205 211 215 220 226 230 237 240 243 245 245 244 241 242 243 244
251 263 274 276 280 263 248 239 246 256 265 263 271 280 262 216 176 190 192 184 191 193 201 206 209 216 221 225 228 232 238 241 242 241 240 238 240 244
257 256 276 301 302 303 295 270 254 241 255 266 253 271 273 262 203 214 205 186 193 197 200 205 208 213 221 228 232 234 237 238 237 235 235 237 239 241
244 250 259 265 275 297 297 284 271 249 248 265 263 264 260 248 241 249 229 217 203 204 205 205 207 214 221 229 232 232 233 235 234 234 235 236 240 242
236 251 264 273 273 279 283 281 279 274 256 260 261 247 250 258 257 262 257 257 240 217 204 204 209 213 219 222 223 225 228 229 230 231 233 235 236 237
238 245 257 259 270 278 273 269 270 277 268 264 267 261 262 271 262 248 263 258 263 248 204 203 203 205 211 212 218 221 223 224 226 228 231 234 235 235
243 243 258 266 283 278 279 296 290 280 274 268 266 280 289 301 292 287 269 262 259 257 218 206 192 194 205 211 219 219 218 220 221 224 226 228 230 229
245 241 241 227 221 223 251 281 283 273 276 277 270 270 272 288 302 302 304 296 279 270 270 261 208 212 197 196 205 211 214 217 219 221 221 223 224 221
237 248 267 265 226 233 259 269 286 271 249 253 271 282 281 287 292 295 293 280 267 259 258 262 240 232 209 198 198 206 211 213 215 217 219 221 222 222
231 237 245 257 276 266 264 283 295 300 278 250 258 287 300 299 277 262 263 266 263 263 241 255 255 251 241 196 208 207 210 211 213 215 217 217 218 222
231 239 222 201 251 346 234 245 259 264 283 13 5 325 318 319 312 292 280 274 280 274 252 252 271 273 254 226 213 217 217 215 214 215 215 216 216 217
216 204 169 154 153 154 224 241 264 292 308 283 300 287 269 273 278 274 289 288 290 286 309 270 269 278 279 263 200 214 224 225 219 217 214 213 210 210
233 218 190 157 146 151 182 227 250 287 283 259 245 246 256 257 256 256 258 273 283 285 309 293 282 279 268 282 275 225 200 213 212 220 218 215 206 200
256 182 145 169 169 180 182 233 290 295 279 289 283 267 249 253 260 256 248 251 252 258 277 279 263 271 279 288 287 276 234 213 206 201 205 210 213 213
34 101 120 139 160 165 191 241 270 268 273 286 291 295 287 271 261 254 250 247 260 269 260 235 242 263 266 273 276 280 278 248 206 202 197 190 199 198
113 117 120 153 193 118 197 243 251 296 310 306 313 317 319 315 287 275 272 272 270 273 257 246 238 240 260 272 274 273 268 257 235 218 207 208 207 201
160 156 141 130 153 151 145 199 268 303 315 312 312 312 311 312 313 303 280 276 279 290 295 273 251 238 234 250 275 277 277 274 246 222 214 222 222 206
141 185 193 191 185 184 187 226 255 267 294 307 317 318 315 310 308 313 311 296 289 291 291 288 286 281 281 279 249 259 268 271 269 245 223 222 230 222
168 223 225 207 188 219 225 258 275 267 254 285 302 308 307 310 308 302 309 312 308 303 299 294 298 292 290 289 280 258 259 261 261 251 242 238 236 224
211 224 220 210 201 216 239 257 286 302 310 297 304 316 320 320 318 311 304 308 310 309 307 305 305 295 277 279 283 289 277 255 250 260 260 265 263 233
218 224 229 242 248 215 223 313 309 327 345 332 324 327 327 320 318 316 311 305 299 301 304 301 296 293 283 289 291 289 289 284 258 239 247 255 260 246
230 225 219 329 4 23 8 335 324 335 342 336 333 329 326 325 320 315 312 306 299 304 306 300 299 303 298 295 298 300 299 301 294 277 263 247 231 231
236 257 194 161 54 260 306 314 327 343 349 339 330 325 325 323 317 313 316 313 305 303 305 302 301 302 296 293 300 306 313 315 310 304 293 284 257 246
Height
1542 1542 1542 1542 1542 1542 1542 1542 1542 1541 1540 1540 1540 1539 1539 1539 1538 1538 1538 1537 1537 1537 1537 1537 1537 1537 1537 1537 1536 1536 1536 1537 1537 1537 1538 1538 1539 1539
1540 1540 1540 1540 1540 1540 1539 1539 1539 1539 1538 1537 1538 1537 1537 1536 1536 1535 1535 1535 1534 1534 1534 1534 1534 1534 1534 1533 1533 1533 1533 1533 1533 1533 1534 1534 1534 1534
1537 1537 1537 1537 1537 1537 1537 1536 1536 1536 1535 1535 1535 1535 1534 1534 1533 1532 1532 1532 1531 1531 1531 1531 1531 1531 1530 1530 1530 1529 1529 1529 1529 1529 1530 1530 1530 1530
1534 1534 1533 1534 1534 1534 1533 1533 1533 1533 1533 1531 1531 1531 1531 1531 1530 1530 1529 1529 1529 1528 1528 1528 1527 1527 1527 1527 1526 1526 1525 1525 1525 1525 1525 1526 1526 1525
1530 1530 1530 1530 1530 1530 1530 1530 1529 1530 1529 1529 1528 1528 1527 1527 1527 1526 1526 1525 1525 1525 1525 1524 1524 1524 1524 1523 1523 1522 1522 1522 1521 1521 1522 1522 1522 1522
1527 1527 1527 1527 1526 1526 1526 1526 1526 1525 1525 1525 1524 1524 1524 1524 1524 1523 1522 1522 1522 1522 1521 1521 1521 1520 1520 1520 1519 1519 1518 1518 1518 1518 1518 1518 1518 1518
1524 1524 1524 1523 1523 1523 1522 1521 1521 1521 1521 1521 1520 1520 1520 1520 1520 1519 1519 1518 1518 1518 1518 1517 1517 1516 1516 1516 1516 1515 1515 1515 1515 1514 1514 1514 1514 1514
1520 1520 1520 1519 1519 1519 1518 1518 1517 1517 1517 1517 1516 1516 1516 1516 1516 1516 1515 1515 1514 1515 1514 1514 1514 1513 1513 1512 1512 1512 1512 1511 1511 1511 1511 1511 1511 1511
1516 1516 1516 1516 1516 1515 1514 1514 1513 1513 1513 1513 1512 1512 1512 1513 1512 1512 1512 1511 1510 1510 1511 1510 1510 1510 1509 1509 1509 1509 1508 1508 1508 1507 1507 1507 1507 1507
1512 1512 1513 1512 1512 1511 1510 1510 1509 1509 1509 1509 1509 1509 1509 1509 1509 1509 1508 1508 1507 1508 1508 1507 1506 1506 1506 1505 1506 1505 1505 1505 1504 1504 1504 1504 1504 1504
1508 1509 1509 1508 1508 1507 1507 1506 1505 1505 1506 1506 1506 1506 1505 1505 1505 1505 1505 1504 1504 1504 1504 1504 1503 1502 1502 1502 1502 1502 1501 1501 1501 1501 1500 1500 1500 1500
1505 1505 1505 1504 1504 1504 1503 1503 1502 1502 1503 1503 1503 1503 1502 1502 1502 1502 1502 1501 1501 1501 1500 1500 1499 1499 1498 1498 1498 1498 1498 1497 1497 1497 1497 1497 1497 1497
1501 1501 1501 1501 1501 1501 1501 1500 1500 1500 1500 1500 1500 1500 1499 1499 1499 1499 1499 1499 1499 1498 1498 1497 1496 1496 1496 1495 1494 1495 1494 1494 1493 1494 1494 1494 1494 1494
1497 1498 1498 1498 1498 1498 1498 1498 1498 1498 1497 1497 1497 1497 1497 1496 1496 1496 1496 1496 1496 1495 1495 1494 1493 1493 1492 1491 1491 1491 1491 1490 1490 1490 1490 1490 1490 1491
1495 1495 1495 1495 1494 1493 1494 1495 1495 1495 1495 1495 1495 1495 1495 1494 1494 1493 1493 1493 1492 1492 1492 1491 1491 1490 1489 1489 1488 1487 1487 1486 1487 1487 1486 1486 1487 1487
1493 1493 1492 1492 1492 1492 1492 1493 1493 1493 1493 1493 1493 1492 1492 1491 1491 1491 1490 1489 1489 1488 1488 1488 1488 1487 1486 1485 1485 1484 1484 1483 1483 1483 1483 1483 1483 1483
1491 1491 1490 1491 1491 1491 1491 1491 1491 1492 1491 1491 1490 1489 1489 1489 1488 1488 1487 1487 1486 1485 1485 1484 1484 1484 1483 1483 1482 1481 1480 1480 1480 1479 1479 1479 1479 1480
1488 1488 1488 1489 1489 1489 1489 1489 1490 1490 1490 1489 1488 1488 1487 1486 1486 1485 1485 1484 1483 1482 1482 1481 1480 1480 1480 1479 1479 1478 1477 1476 1476 1476 1476 1476 1475 1476
1486 1487 1487 1487 1487 1487 1488 1488 1488 1488 1487 1487 1486 1486 1485 1484 1484 1483 1482 1481 1480 1480 1479 1478 1478 1477 1475 1474 1475 1475 1474 1473 1472 1472 1472 1472 1472 1472
1484 1485 1485 1485 1485 1485 1485 1486 1486 1485 1485 1485 1484 1484 1483 1482 1481 1480 1479 1479 1478 1477 1476 1475 1475 1474 1473 1472 1471 1471 1471 1470 1469 1468 1468 1468 1468 1468
1482 1483 1483 1483 1483 1483 1483 1483 1483 1483 1483 1482 1482 1481 1481 1480 1479 1478 1477 1476 1475 1474 1473 1472 1471 1471 1470 1469 1468 1466 1466 1467 1466 1465 1464 1464 1464 1464
1481 1481 1481 1481 1481 1481 1481 1481 1481 1481 1480 1480 1479 1479 1478 1477 1476 1475 1475 1474 1473 1472 1470 1469 1469 1468 1466 1465 1464 1463 1462 1462 1461 1461 1460 1460 1459 1459
1479 1479 1479 1479 1479 1479 1479 1479 1478 1478 1477 1477 1476 1476 1475 1474 1474 1473 1472 1471 1470 1469 1468 1466 1465 1464 1463 1462 1461 1460 1459 1457 1456 1456 1455 1455 1456 1456